Time,TemperatureF,DewpointF,PressureIn,WindDirection,WindDirectionDegrees,WindSpeedMPH,WindSpeedGustMPH,Humidity,HourlyPrecipIn,Conditions,Clouds,dailyrainin,SoftwareType,DateUTC
2013-04-06 00:00:00,62.1,58.2,30.09,WNW,292,1.6,1.6,87,0.00,,SCT025,0.00,VWS V14.00,2013-04-06 04:00:00,
2013-04-06 00:05:00,62.1,58.2,30.09,NW,315,0.0,0.0,87,0.00,,SCT025,0.00,VWS V14.00,2013-04-06 04:05:00,
2013-04-06 00:10:00,62.1,58.2,30.09,West,270,0.0,0.0,87,0.00,,SCT025,0.00,VWS V14.00,2013-04-06 04:10:00,
2013-04-06 00:15:00,62.1,58.2,30.09,North,0,3.1,3.1,87,0.00,,SCT025,0.00,VWS V14.00,2013-04-06 04:15:00,
2013-04-06 00:20:00,62.1,58.2,30.09,NW,315,0.0,0.0,87,0.00,,SCT025,0.00,VWS V14.00,2013-04-06 04:20:00,
2013-04-06 00:25:00,62.1,58.2,30.09,NNW,338,0.0,0.0,87,0.00,,SCT025,0.00,VWS V14.00,2013-04-06 04:25:00,
2013-04-06 00:30:00,61.9,58.0,30.09,WNW,292,1.1,1.1,87,0.00,,SCT025,0.00,VWS V14.00,2013-04-06 04:30:00,
2013-04-06 00:35:00,61.9,58.0,30.09,NW,315,2.5,2.5,87,0.00,,SCT025,0.00,VWS V14.00,2013-04-06 04:35:00,
2013-04-06 00:40:00,62.1,57.8,30.09,North,0,3.1,3.1,86,0.00,,SCT025,0.00,VWS V14.00,2013-04-06 04:40:00,
2013-04-06 00:45:00,62.1,57.8,30.09,WNW,292,2.9,2.9,86,0.00,,SCT025,0.00,VWS V14.00,2013-04-06 04:45:00,
2013-04-06 00:50:00,62.1,57.8,30.09,West,270,0.9,0.9,86,0.00,,SCT025,0.00,VWS V14.00,2013-04-06 04:50:00,
2013-04-06 00:55:00,61.9,57.3,30.09,WNW,292,2.0,2.0,85,0.00,,SCT025,0.00,VWS V14.00,2013-04-06 04:55:00,
2013-04-06 01:00:00,62.1,57.2,30.09,North,0,1.6,1.6,84,0.00,,SCT025,0.00,VWS V14.00,2013-04-06 05:00:00,
2013-04-06 01:05:00,61.9,56.7,30.09,West,270,2.7,2.7,83,0.00,,SCT025,0.00,VWS V14.00,2013-04-06 05:05:00,
2013-04-06 01:10:00,61.9,56.7,30.09,NNE,22,2.7,2.7,83,0.00,,SCT025,0.00,VWS V14.00,2013-04-06 05:10:00,
2013-04-06 01:15:00,61.9,56.3,30.09,West,270,0.0,0.0,82,0.00,,SCT025,0.00,VWS V14.00,2013-04-06 05:15:00,
2013-04-06 01:20:00,61.9,56.3,30.09,WNW,292,0.0,0.0,82,0.00,,SCT025,0.00,VWS V14.00,2013-04-06 05:20:00,
2013-04-06 01:25:00,61.9,56.3,30.09,West,270,0.0,0.0,82,0.00,,SCT025,0.00,VWS V14.00,2013-04-06 05:25:00,
2013-04-06 01:30:00,61.9,56.0,30.09,WNW,292,1.1,1.1,81,0.00,,SCT025,0.00,VWS V14.00,2013-04-06 05:30:00,
2013-04-06 01:35:00,61.9,56.0,30.09,WNW,292,1.1,1.1,81,0.00,,SCT025,0.00,VWS V14.00,2013-04-06 05:35:00,
2013-04-06 01:40:00,61.9,56.0,30.09,WSW,248,4.0,4.0,81,0.00,,SCT025,0.00,VWS V14.00,2013-04-06 05:40:00,
2013-04-06 01:45:00,61.9,56.0,30.09,WNW,292,2.0,2.0,81,0.00,,SCT025,0.00,VWS V14.00,2013-04-06 05:45:00,
2013-04-06 01:50:00,61.9,56.0,30.09,North,0,0.9,0.9,81,0.00,,SCT025,0.00,VWS V14.00,2013-04-06 05:50:00,
2013-04-06 01:55:00,61.7,55.5,30.09,NNW,338,3.4,3.4,80,0.00,,SCT025,0.00,VWS V14.00,2013-04-06 05:55:00,
2013-04-06 02:00:00,61.7,55.5,30.09,NNE,22,3.4,3.4,80,0.00,,SCT025,0.00,VWS V14.00,2013-04-06 06:00:00,
2013-04-06 02:05:00,61.5,55.3,30.09,NNW,338,1.1,1.1,80,0.00,,SCT025,0.00,VWS V14.00,2013-04-06 06:05:00,
2013-04-06 02:10:00,61.5,55.3,30.09,WNW,292,2.7,2.7,80,0.00,,SCT025,0.00,VWS V14.00,2013-04-06 06:10:00,
2013-04-06 02:15:00,61.5,55.3,30.09,West,270,1.6,1.6,80,0.00,,SCT025,0.00,VWS V14.00,2013-04-06 06:15:00,
2013-04-06 02:20:00,61.5,55.3,30.09,SW,225,1.6,1.6,80,0.00,,SCT025,0.00,VWS V14.00,2013-04-06 06:20:00,
2013-04-06 02:25:00,61.3,55.5,30.09,West,270,1.1,1.1,81,0.00,,SCT025,0.00,VWS V14.00,2013-04-06 06:25:00,
2013-04-06 02:30:00,61.3,55.1,30.09,West,270,0.0,0.0,80,0.00,,SCT025,0.00,VWS V14.00,2013-04-06 06:30:00,
2013-04-06 02:35:00,61.3,55.1,30.09,NW,315,4.7,4.7,80,0.00,,SCT025,0.00,VWS V14.00,2013-04-06 06:35:00,
2013-04-06 02:40:00,61.2,55.0,30.09,West,270,0.0,0.0,80,0.00,,SCT025,0.00,VWS V14.00,2013-04-06 06:40:00,
2013-04-06 02:45:00,61.2,55.0,30.09,West,270,0.0,0.0,80,0.00,,SCT025,0.00,VWS V14.00,2013-04-06 06:45:00,
2013-04-06 02:50:00,61.0,54.8,30.09,West,270,3.4,3.4,80,0.00,,SCT025,0.00,VWS V14.00,2013-04-06 06:50:00,
2013-04-06 02:55:00,60.6,55.1,30.09,West,270,0.0,0.0,82,0.00,,SCT025,0.00,VWS V14.00,2013-04-06 06:55:00,
2013-04-06 03:00:00,60.4,54.9,30.09,WSW,248,2.0,2.0,82,0.00,,SCT025,0.00,VWS V14.00,2013-04-06 07:00:00,
2013-04-06 03:05:00,60.1,54.9,30.09,WNW,292,1.3,1.3,83,0.00,,SCT025,0.00,VWS V14.00,2013-04-06 07:05:00,
2013-04-06 03:10:00,59.9,54.7,30.09,West,270,0.0,0.0,83,0.00,,SCT025,0.00,VWS V14.00,2013-04-06 07:10:00,
2013-04-06 03:15:00,59.9,54.7,30.09,West,270,1.1,1.1,83,0.00,,SCT025,0.00,VWS V14.00,2013-04-06 07:15:00,
2013-04-06 03:20:00,59.4,54.5,30.09,West,270,1.1,1.1,84,0.00,,SCT025,0.00,VWS V14.00,2013-04-06 07:20:00,
2013-04-06 03:25:00,59.4,54.5,30.09,West,270,0.9,0.9,84,0.00,,SCT025,0.00,VWS V14.00,2013-04-06 07:25:00,
2013-04-06 03:30:00,59.2,54.7,30.09,NNW,338,1.1,1.1,85,0.00,,SCT025,0.00,VWS V14.00,2013-04-06 07:30:00,
2013-04-06 03:35:00,59.2,54.7,30.09,NNW,338,1.1,1.1,85,0.00,,SCT025,0.00,VWS V14.00,2013-04-06 07:35:00,
2013-04-06 03:40:00,58.8,54.3,30.09,West,270,0.0,0.0,85,0.00,,SCT025,0.00,VWS V14.00,2013-04-06 07:40:00,
2013-04-06 03:45:00,58.8,54.3,30.09,NNE,22,2.5,2.5,85,0.00,,SCT025,0.00,VWS V14.00,2013-04-06 07:45:00,
2013-04-06 03:50:00,58.8,54.3,30.09,West,270,0.0,0.0,85,0.00,,SCT025,0.00,VWS V14.00,2013-04-06 07:50:00,
2013-04-06 03:55:00,58.8,54.3,30.09,WNW,292,1.3,1.3,85,0.00,,SCT025,0.00,VWS V14.00,2013-04-06 07:55:00,
2013-04-06 04:00:00,58.6,54.2,30.09,WSW,248,0.0,0.0,85,0.00,,SCT025,0.00,VWS V14.00,2013-04-06 08:00:00,
2013-04-06 04:05:00,58.6,54.2,30.09,West,270,0.0,0.0,85,0.00,,SCT025,0.00,VWS V14.00,2013-04-06 08:05:00,
2013-04-06 04:10:00,58.6,54.2,30.09,West,270,2.0,2.0,85,0.00,,SCT025,0.00,VWS V14.00,2013-04-06 08:10:00,
2013-04-06 04:15:00,58.5,54.0,30.09,West,270,0.0,0.0,85,0.00,,SCT025,0.00,VWS V14.00,2013-04-06 08:15:00,
2013-04-06 04:20:00,58.5,54.0,30.09,West,270,0.0,0.0,85,0.00,,SCT025,0.00,VWS V14.00,2013-04-06 08:20:00,
2013-04-06 04:25:00,58.5,54.0,30.09,West,270,0.0,0.0,85,0.00,,SCT025,0.00,VWS V14.00,2013-04-06 08:25:00,
2013-04-06 04:30:00,58.3,54.1,30.09,West,270,0.0,0.0,86,0.00,,SCT025,0.00,VWS V14.00,2013-04-06 08:30:00,
2013-04-06 04:35:00,58.3,54.1,30.09,West,270,1.1,1.1,86,0.00,,SCT025,0.00,VWS V14.00,2013-04-06 08:35:00,
2013-04-06 04:40:00,58.1,53.9,30.09,West,270,1.6,1.6,86,0.00,,SCT025,0.00,VWS V14.00,2013-04-06 08:40:00,
2013-04-06 04:45:00,58.1,53.9,30.09,West,270,0.0,0.0,86,0.00,,SCT025,0.00,VWS V14.00,2013-04-06 08:45:00,
2013-04-06 04:50:00,58.1,53.9,30.09,WSW,248,1.1,1.1,86,0.00,,SCT025,0.00,VWS V14.00,2013-04-06 08:50:00,
2013-04-06 04:55:00,58.1,53.9,30.09,WSW,248,0.0,0.0,86,0.00,,SCT025,0.00,VWS V14.00,2013-04-06 08:55:00,
2013-04-06 05:00:00,58.1,53.9,30.09,West,270,0.0,0.0,86,0.00,,SCT025,0.00,VWS V14.00,2013-04-06 09:00:00,
2013-04-06 05:05:00,58.1,54.3,30.09,West,270,0.0,0.0,87,0.00,,SCT025,0.00,VWS V14.00,2013-04-06 09:05:00,
2013-04-06 05:10:00,57.9,54.1,30.09,West,270,0.0,0.0,87,0.00,,SCT025,0.00,VWS V14.00,2013-04-06 09:10:00,
2013-04-06 05:15:00,57.9,54.1,30.09,West,270,0.0,0.0,87,0.00,,SCT025,0.00,VWS V14.00,2013-04-06 09:15:00,
2013-04-06 05:20:00,57.9,54.1,30.09,West,270,0.9,0.9,87,0.00,,SCT025,0.00,VWS V14.00,2013-04-06 09:20:00,
2013-04-06 05:25:00,57.9,54.1,30.09,WNW,292,0.0,0.0,87,0.00,,SCT025,0.00,VWS V14.00,2013-04-06 09:25:00,
2013-04-06 05:30:00,57.9,54.1,30.09,West,270,0.9,0.9,87,0.00,,SCT025,0.00,VWS V14.00,2013-04-06 09:30:00,
2013-04-06 05:35:00,57.6,53.7,30.09,West,270,0.0,0.0,87,0.00,,SCT025,0.00,VWS V14.00,2013-04-06 09:35:00,
2013-04-06 05:40:00,57.6,53.7,30.09,West,270,0.0,0.0,87,0.00,,SCT025,0.00,VWS V14.00,2013-04-06 09:40:00,
2013-04-06 05:45:00,57.6,53.7,30.09,West,270,0.0,0.0,87,0.00,,SCT025,0.00,VWS V14.00,2013-04-06 09:45:00,
2013-04-06 05:51:00,57.6,54.0,30.09,West,270,0.0,0.0,88,0.00,,SCT025,0.00,VWS V14.00,2013-04-06 09:51:00,
2013-04-06 05:56:00,57.4,54.2,30.09,West,270,0.0,0.0,89,0.00,,SCT025,0.00,VWS V14.00,2013-04-06 09:56:00,
2013-04-06 06:01:00,57.4,54.2,30.09,West,270,0.0,0.0,89,0.00,,SCT025,0.00,VWS V14.00,2013-04-06 10:01:00,
2013-04-06 06:06:00,57.2,54.0,30.09,West,270,0.9,0.9,89,0.00,,SCT025,0.00,VWS V14.00,2013-04-06 10:06:00,
2013-04-06 06:11:00,57.2,54.0,30.09,West,270,1.1,1.1,89,0.00,,SCT025,0.00,VWS V14.00,2013-04-06 10:11:00,
2013-04-06 06:17:00,57.0,54.1,30.09,West,270,0.0,0.0,90,0.00,,SCT025,0.00,VWS V14.00,2013-04-06 10:17:00,
2013-04-06 06:22:00,56.8,53.9,30.09,West,270,0.0,0.0,90,0.00,,SCT025,0.00,VWS V14.00,2013-04-06 10:22:00,
2013-04-06 06:27:00,56.8,54.2,30.09,West,270,0.0,0.0,91,0.00,,SCT025,0.00,VWS V14.00,2013-04-06 10:27:00,
2013-04-06 06:32:00,56.8,54.2,30.12,West,270,0.9,0.9,91,0.00,,SCT025,0.00,VWS V14.00,2013-04-06 10:32:00,
2013-04-06 06:37:00,56.8,54.2,30.12,West,270,1.1,1.1,91,0.00,,SCT025,0.00,VWS V14.00,2013-04-06 10:37:00,
2013-04-06 06:42:00,56.8,54.2,30.12,West,270,1.1,1.1,91,0.00,,SCT025,0.00,VWS V14.00,2013-04-06 10:42:00,
2013-04-06 06:47:00,56.5,54.8,30.12,West,270,1.6,1.6,94,0.00,,SCT025,0.00,VWS V14.00,2013-04-06 10:47:00,
2013-04-06 06:52:00,56.5,54.8,30.12,West,270,0.0,0.0,94,0.00,,SCT025,0.00,VWS V14.00,2013-04-06 10:52:00,
2013-04-06 06:57:00,56.3,54.6,30.12,WSW,248,1.3,1.3,94,0.00,,SCT025,0.00,VWS V14.00,2013-04-06 10:57:00,
2013-04-06 07:02:00,56.3,54.6,30.12,WSW,248,2.2,2.2,94,0.00,,SCT025,0.00,VWS V14.00,2013-04-06 11:02:00,
2013-04-06 07:07:00,56.3,54.6,30.12,West,270,0.0,0.0,94,0.00,,SCT025,0.00,VWS V14.00,2013-04-06 11:07:00,
2013-04-06 07:12:00,56.3,54.6,30.12,WSW,248,0.0,0.0,94,0.00,,SCT025,0.00,VWS V14.00,2013-04-06 11:12:00,
2013-04-06 07:17:00,56.3,54.6,30.12,WSW,248,1.3,1.3,94,0.00,,SCT025,0.00,VWS V14.00,2013-04-06 11:17:00,
2013-04-06 07:22:00,56.5,54.8,30.12,West,270,0.0,0.0,94,0.00,,SCT025,0.00,VWS V14.00,2013-04-06 11:22:00,
2013-04-06 07:27:00,56.5,54.8,30.12,WNW,292,2.2,2.2,94,0.00,,SCT025,0.00,VWS V14.00,2013-04-06 11:27:00,
2013-04-06 07:32:00,56.5,54.8,30.12,West,270,0.0,0.0,94,0.00,,SCT025,0.00,VWS V14.00,2013-04-06 11:32:00,
2013-04-06 07:33:00,56.7,55.2,30.12,West,270,0.0,0.0,95,0.00,,SCT025,0.00,VWS V14.00,2013-04-06 11:33:00,
2013-04-06 07:38:00,56.7,55.2,30.12,WNW,292,0.9,0.9,95,0.00,,SCT025,0.00,VWS V14.00,2013-04-06 11:38:00,
2013-04-06 07:43:00,56.8,55.4,30.12,WSW,248,1.3,1.3,95,0.00,,SCT025,0.00,VWS V14.00,2013-04-06 11:43:00,
2013-04-06 07:48:00,56.8,55.4,30.12,WNW,292,0.9,0.9,95,0.00,,SCT025,0.00,VWS V14.00,2013-04-06 11:48:00,
2013-04-06 07:53:00,57.2,55.5,30.12,West,270,0.9,0.9,94,0.00,,SCT025,0.00,VWS V14.00,2013-04-06 11:53:00,
2013-04-06 07:58:00,57.2,55.5,30.12,West,270,0.0,0.0,94,0.00,,SCT025,0.00,VWS V14.00,2013-04-06 11:58:00,
2013-04-06 08:03:00,57.7,55.7,30.15,WNW,292,1.1,1.1,93,0.00,,SCT025,0.00,VWS V14.00,2013-04-06 12:03:00,
2013-04-06 08:08:00,59.2,56.6,30.15,West,270,1.1,1.1,91,0.00,,SCT025,0.00,VWS V14.00,2013-04-06 12:08:00,
2013-04-06 08:13:00,59.9,56.7,30.15,West,270,1.1,1.1,89,0.00,,SCT025,0.00,VWS V14.00,2013-04-06 12:13:00,
2013-04-06 08:18:00,60.8,55.9,30.15,WSW,248,2.2,2.2,84,0.00,,SCT025,0.00,VWS V14.00,2013-04-06 12:18:00,
2013-04-06 08:23:00,62.1,55.8,30.15,WSW,248,4.0,4.0,80,0.00,,SCT025,0.00,VWS V14.00,2013-04-06 12:23:00,
2013-04-06 08:28:00,62.4,54.8,30.15,West,270,1.6,1.6,76,0.00,,SCT025,0.00,VWS V14.00,2013-04-06 12:28:00,
2013-04-06 08:33:00,63.3,54.2,30.15,West,270,4.0,4.0,72,0.00,,SCT025,0.00,VWS V14.00,2013-04-06 12:33:00,
2013-04-06 08:38:00,64.0,53.7,30.15,West,270,1.3,1.3,69,0.00,,SCT025,0.00,VWS V14.00,2013-04-06 12:38:00,
2013-04-06 08:43:00,64.9,53.7,30.15,WSW,248,1.3,1.3,67,0.00,,SCT025,0.00,VWS V14.00,2013-04-06 12:43:00,
2013-04-06 08:48:00,65.7,54.8,30.15,NW,315,2.5,2.5,68,0.00,,SCT025,0.00,VWS V14.00,2013-04-06 12:48:00,
2013-04-06 08:53:00,66.4,53.4,30.15,WNW,292,0.9,0.9,63,0.00,,SCT025,0.00,VWS V14.00,2013-04-06 12:53:00,
2013-04-06 08:58:00,67.1,54.1,30.15,West,270,0.0,0.0,63,0.00,,SCT025,0.00,VWS V14.00,2013-04-06 12:58:00,
2013-04-06 09:03:00,67.6,51.9,30.18,WNW,292,0.0,0.0,57,0.00,,SCT025,0.00,VWS V14.00,2013-04-06 13:03:00,
2013-04-06 09:08:00,68.0,52.2,30.18,WNW,292,1.3,1.3,57,0.00,,SCT025,0.00,VWS V14.00,2013-04-06 13:08:00,
2013-04-06 09:13:00,68.7,52.9,30.18,WSW,248,0.0,0.0,57,0.00,,SCT025,0.00,VWS V14.00,2013-04-06 13:13:00,
2013-04-06 09:18:00,69.3,52.4,30.15,WSW,248,0.9,0.9,55,0.00,,SCT025,0.00,VWS V14.00,2013-04-06 13:18:00,
2013-04-06 09:23:00,68.9,49.0,30.15,West,270,2.5,2.5,49,0.00,,SCT025,0.00,VWS V14.00,2013-04-06 13:23:00,
2013-04-06 09:28:00,70.2,51.7,30.15,NNE,22,0.0,0.0,52,0.00,,SCT025,0.00,VWS V14.00,2013-04-06 13:28:00,
2013-04-06 09:33:00,70.5,50.5,30.15,NNW,338,2.7,2.7,49,0.00,,SCT025,0.00,VWS V14.00,2013-04-06 13:33:00,
2013-04-06 09:38:00,70.2,50.1,30.15,WSW,248,1.3,1.3,49,0.00,,SCT025,0.00,VWS V14.00,2013-04-06 13:38:00,
2013-04-06 09:43:00,70.7,50.6,30.15,South,180,2.7,2.7,49,0.00,,SCT025,0.00,VWS V14.00,2013-04-06 13:43:00,
2013-04-06 09:48:00,70.9,51.3,30.15,SSW,202,1.3,1.3,50,0.00,,SCT025,0.00,VWS V14.00,2013-04-06 13:48:00,
2013-04-06 09:53:00,70.7,50.1,30.15,ENE,68,1.3,1.3,48,0.00,,SCT025,0.00,VWS V14.00,2013-04-06 13:53:00,
2013-04-06 09:58:00,70.2,50.1,30.15,North,0,4.7,4.7,49,0.00,,SCT025,0.00,VWS V14.00,2013-04-06 13:58:00,
2013-04-06 10:03:00,70.0,50.5,30.18,NE,45,4.0,4.0,50,0.00,,SCT025,0.00,VWS V14.00,2013-04-06 14:03:00,
2013-04-06 10:08:00,70.3,51.9,30.18,NNW,338,3.1,3.1,52,0.00,,SCT025,0.00,VWS V14.00,2013-04-06 14:08:00,
2013-04-06 10:13:00,70.2,51.2,30.18,NNE,22,5.8,5.8,51,0.00,,SCT025,0.00,VWS V14.00,2013-04-06 14:13:00,
2013-04-06 10:18:00,70.3,52.4,30.18,NW,315,4.0,4.0,53,0.00,,SCT025,0.00,VWS V14.00,2013-04-06 14:18:00,
2013-04-06 10:23:00,70.5,52.1,30.18,North,0,2.7,2.7,52,0.00,,SCT025,0.00,VWS V14.00,2013-04-06 14:23:00,
2013-04-06 10:28:00,70.5,52.1,30.18,WNW,292,1.6,1.6,52,0.00,,SCT025,0.00,VWS V14.00,2013-04-06 14:28:00,
2013-04-06 10:33:00,71.1,53.1,30.18,NNE,22,1.3,1.3,53,0.00,,SCT025,0.00,VWS V14.00,2013-04-06 14:33:00,
2013-04-06 10:38:00,71.4,53.4,30.18,SW,225,2.2,2.2,53,0.00,,SCT025,0.00,VWS V14.00,2013-04-06 14:38:00,
2013-04-06 10:43:00,71.4,52.9,30.18,North,0,2.9,2.9,52,0.00,,SCT025,0.00,VWS V14.00,2013-04-06 14:43:00,
2013-04-06 10:48:00,71.4,51.8,30.15,SSW,202,1.6,1.6,50,0.00,,SCT025,0.00,VWS V14.00,2013-04-06 14:48:00,
2013-04-06 15:11:00,73.9,55.8,0.00,NE,45,5.8,5.8,53,0.00,,SCT025,0.00,VWS V14.00,2013-04-06 19:11:00,
2013-04-06 15:16:00,73.9,55.2,30.15,NE,45,3.4,3.4,52,0.00,,SCT025,0.00,VWS V14.00,2013-04-06 19:16:00,
2013-04-06 15:21:00,74.1,55.9,30.15,NNE,22,3.8,3.8,53,0.00,,SCT025,0.00,VWS V14.00,2013-04-06 19:21:00,
2013-04-06 15:26:00,73.9,53.6,30.15,East,90,9.6,9.6,49,0.00,,SCT025,0.00,VWS V14.00,2013-04-06 19:26:00,
2013-04-06 15:31:00,74.1,54.3,30.15,NNE,22,6.3,6.3,50,0.00,,SCT025,0.00,VWS V14.00,2013-04-06 19:31:00,
2013-04-06 15:36:00,73.9,51.9,30.15,NE,45,8.1,8.1,46,0.00,,SCT025,0.00,VWS V14.00,2013-04-06 19:36:00,
2013-04-06 15:41:00,74.3,52.2,30.15,NE,45,5.8,5.8,46,0.00,,SCT025,0.00,VWS V14.00,2013-04-06 19:41:00,
2013-04-06 15:47:00,73.9,51.3,30.18,NNW,338,4.0,4.0,45,0.00,,SCT025,0.00,VWS V14.00,2013-04-06 19:47:00,
2013-04-06 15:52:00,74.1,51.4,30.18,NNE,22,8.5,8.5,45,0.00,,SCT025,0.00,VWS V14.00,2013-04-06 19:52:00,
2013-04-06 15:57:00,74.3,51.6,30.18,NNE,22,3.8,3.8,45,0.00,,SCT025,0.00,VWS V14.00,2013-04-06 19:57:00,
2013-04-06 16:02:00,74.3,52.2,30.18,NNE,22,6.9,6.9,46,0.00,,SCT025,0.00,VWS V14.00,2013-04-06 20:02:00,
2013-04-06 16:07:00,74.1,52.0,30.18,WSW,248,2.5,2.5,46,0.00,,SCT025,0.00,VWS V14.00,2013-04-06 20:07:00,
2013-04-06 16:12:00,74.3,51.6,30.18,NNW,338,6.9,6.9,45,0.00,,SCT025,0.00,VWS V14.00,2013-04-06 20:12:00,
2013-04-06 16:17:00,74.1,52.0,30.15,North,0,1.3,1.3,46,0.00,,SCT025,0.00,VWS V14.00,2013-04-06 20:17:00,
2013-04-06 16:22:00,73.9,51.9,30.15,NE,45,10.7,10.7,46,0.00,,SCT025,0.00,VWS V14.00,2013-04-06 20:22:00,
2013-04-06 16:27:00,74.1,52.0,30.15,East,90,4.3,4.3,46,0.00,,SCT025,0.00,VWS V14.00,2013-04-06 20:27:00,
2013-04-06 16:32:00,73.9,51.3,30.18,NNE,22,3.8,3.8,45,0.00,,SCT025,0.00,VWS V14.00,2013-04-06 20:32:00,
2013-04-06 16:37:00,74.1,51.4,30.18,WNW,292,2.5,2.5,45,0.00,,SCT025,0.00,VWS V14.00,2013-04-06 20:37:00,
2013-04-06 16:42:00,74.1,51.4,30.18,North,0,3.6,3.6,45,0.00,,SCT025,0.00,VWS V14.00,2013-04-06 20:42:00,
2013-04-06 16:47:00,74.1,50.2,30.18,NE,45,5.8,5.8,43,0.00,,SCT025,0.00,VWS V14.00,2013-04-06 20:47:00,
2013-04-06 16:52:00,74.3,50.4,30.18,NNW,338,3.1,3.1,43,0.00,,SCT025,0.00,VWS V14.00,2013-04-06 20:52:00,
2013-04-06 16:57:00,74.1,49.6,30.18,NNE,22,5.4,5.4,42,0.00,,SCT025,0.00,VWS V14.00,2013-04-06 20:57:00,
2013-04-06 17:02:00,73.9,48.8,30.18,SW,225,4.3,4.3,41,0.00,,SCT025,0.00,VWS V14.00,2013-04-06 21:02:00,
2013-04-06 17:07:00,73.8,48.6,30.18,NE,45,4.9,4.9,41,0.00,,SCT025,0.00,VWS V14.00,2013-04-06 21:07:00,
2013-04-06 17:12:00,73.8,49.3,30.18,West,270,2.7,2.7,42,0.00,,SCT025,0.00,VWS V14.00,2013-04-06 21:12:00,
2013-04-06 17:17:00,73.9,50.1,30.18,West,270,4.3,4.3,43,0.00,,SCT025,0.00,VWS V14.00,2013-04-06 21:17:00,
2013-04-06 17:22:00,73.8,49.3,30.18,NNE,22,7.8,7.8,42,0.00,,SCT025,0.00,VWS V14.00,2013-04-06 21:22:00,
2013-04-06 17:27:00,73.6,48.5,30.18,ENE,68,3.8,3.8,41,0.00,,SCT025,0.00,VWS V14.00,2013-04-06 21:27:00,
2013-04-06 17:32:00,73.4,48.3,30.21,NNE,22,9.8,9.8,41,0.00,,SCT025,0.00,VWS V14.00,2013-04-06 21:32:00,
2013-04-06 17:37:00,73.2,48.8,30.21,SSW,202,1.3,1.3,42,0.00,,SCT025,0.00,VWS V14.00,2013-04-06 21:37:00,
2013-04-06 17:42:00,73.2,48.8,30.21,ENE,68,4.7,4.7,42,0.00,,SCT025,0.00,VWS V14.00,2013-04-06 21:42:00,
2013-04-06 17:47:00,73.2,48.8,30.18,SW,225,6.5,6.5,42,0.00,,SCT025,0.00,VWS V14.00,2013-04-06 21:47:00,
2013-04-06 17:52:00,73.0,48.6,30.18,North,0,1.6,1.6,42,0.00,,SCT025,0.00,VWS V14.00,2013-04-06 21:52:00,
2013-04-06 17:57:00,73.0,48.6,30.18,ENE,68,1.6,1.6,42,0.00,,SCT025,0.00,VWS V14.00,2013-04-06 21:57:00,
2013-04-06 18:02:00,73.0,48.0,30.18,NNE,22,3.4,3.4,41,0.00,,SCT025,0.00,VWS V14.00,2013-04-06 22:02:00,
2013-04-06 18:07:00,72.9,48.5,30.18,ENE,68,2.5,2.5,42,0.00,,SCT025,0.00,VWS V14.00,2013-04-06 22:07:00,
2013-04-06 18:12:00,72.9,48.5,30.18,West,270,6.5,6.5,42,0.00,,SCT025,0.00,VWS V14.00,2013-04-06 22:12:00,
2013-04-06 18:17:00,72.9,49.1,30.21,NE,45,1.3,1.3,43,0.00,,SCT025,0.00,VWS V14.00,2013-04-06 22:17:00,
2013-04-06 18:22:00,72.7,48.9,30.21,NE,45,2.0,2.0,43,0.00,,SCT025,0.00,VWS V14.00,2013-04-06 22:22:00,
2013-04-06 18:27:00,72.5,48.1,30.21,NE,45,5.8,5.8,42,0.00,,SCT025,0.00,VWS V14.00,2013-04-06 22:27:00,
2013-04-06 18:32:00,72.3,48.0,30.21,NNE,22,5.4,5.4,42,0.00,,SCT025,0.00,VWS V14.00,2013-04-06 22:32:00,
2013-04-06 18:37:00,72.3,48.6,30.21,NNE,22,3.6,3.6,43,0.00,,SCT025,0.00,VWS V14.00,2013-04-06 22:37:00,
2013-04-06 18:42:00,72.3,49.2,30.21,ENE,68,3.4,3.4,44,0.00,,SCT025,0.00,VWS V14.00,2013-04-06 22:42:00,
2013-04-06 18:47:00,72.3,48.6,30.21,ENE,68,2.7,2.7,43,0.00,,SCT025,0.00,VWS V14.00,2013-04-06 22:47:00,
2013-04-06 18:52:00,72.1,48.4,30.21,NNE,22,5.8,5.8,43,0.00,,SCT025,0.00,VWS V14.00,2013-04-06 22:52:00,
2013-04-06 18:57:00,72.0,48.9,30.21,NE,45,2.0,2.0,44,0.00,,SCT025,0.00,VWS V14.00,2013-04-06 22:57:00,
2013-04-06 19:02:00,72.0,48.9,30.21,NE,45,5.4,5.4,44,0.00,,SCT025,0.00,VWS V14.00,2013-04-06 23:02:00,
2013-04-06 19:07:00,71.8,49.3,30.21,WNW,292,1.1,1.1,45,0.00,,SCT025,0.00,VWS V14.00,2013-04-06 23:07:00,
2013-04-06 19:12:00,71.6,48.6,30.21,NNE,22,1.6,1.6,44,0.00,,SCT025,0.00,VWS V14.00,2013-04-06 23:12:00,
2013-04-06 19:17:00,71.6,49.2,30.21,WSW,248,2.9,2.9,45,0.00,,SCT025,0.00,VWS V14.00,2013-04-06 23:17:00,
2013-04-06 19:22:00,71.4,49.6,30.21,NNE,22,0.9,0.9,46,0.00,,SCT025,0.00,VWS V14.00,2013-04-06 23:22:00,
2013-04-06 19:27:00,71.1,49.8,30.21,NE,45,3.8,3.8,47,0.00,,SCT025,0.00,VWS V14.00,2013-04-06 23:27:00,
2013-04-06 19:33:00,70.9,49.7,30.24,NE,45,1.3,1.3,47,0.00,,SCT025,0.00,VWS V14.00,2013-04-06 23:33:00,
2013-04-06 19:37:00,70.7,50.1,30.24,NE,45,6.3,6.3,48,0.00,,SCT025,0.00,VWS V14.00,2013-04-06 23:37:00,
2013-04-06 19:42:00,70.5,50.5,30.24,NE,45,2.9,2.9,49,0.00,,SCT025,0.00,VWS V14.00,2013-04-06 23:42:00,
2013-04-06 19:47:00,70.3,50.3,30.21,WNW,292,0.0,0.0,49,0.00,,SCT025,0.00,VWS V14.00,2013-04-06 23:47:00,
2013-04-06 19:52:00,70.2,50.7,30.21,North,0,0.9,0.9,50,0.00,,SCT025,0.00,VWS V14.00,2013-04-06 23:52:00,
2013-04-06 19:57:00,70.0,50.5,30.21,SSW,202,0.0,0.0,50,0.00,,SCT025,0.00,VWS V14.00,2013-04-06 23:57:00,
2013-04-06 20:02:00,69.8,50.9,30.24,SW,225,0.0,0.0,51,0.00,,SCT025,0.00,VWS V14.00,2013-04-07 00:02:00,
2013-04-06 20:07:00,69.6,51.2,30.24,WSW,248,2.0,2.0,52,0.00,,SCT025,0.00,VWS V14.00,2013-04-07 00:07:00,
2013-04-06 20:12:00,69.4,51.1,30.24,WSW,248,2.0,2.0,52,0.00,,SCT025,0.00,VWS V14.00,2013-04-07 00:12:00,
2013-04-06 20:17:00,69.3,51.4,30.24,WSW,248,2.0,2.0,53,0.00,,SCT025,0.00,VWS V14.00,2013-04-07 00:17:00,
2013-04-06 20:22:00,69.1,51.2,30.24,West,270,0.0,0.0,53,0.00,,SCT025,0.00,VWS V14.00,2013-04-07 00:22:00,
2013-04-06 20:27:00,69.1,51.8,30.24,SW,225,0.0,0.0,54,0.00,,SCT025,0.00,VWS V14.00,2013-04-07 00:27:00,
2013-04-06 20:32:00,68.9,52.1,30.24,SW,225,0.0,0.0,55,0.00,,SCT025,0.00,VWS V14.00,2013-04-07 00:32:00,
2013-04-06 20:37:00,68.9,53.1,30.24,NNW,338,0.0,0.0,57,0.00,,SCT025,0.00,VWS V14.00,2013-04-07 00:37:00,
2013-04-06 20:42:00,68.9,53.1,30.24,West,270,0.0,0.0,57,0.00,,SCT025,0.00,VWS V14.00,2013-04-07 00:42:00,
2013-04-06 20:47:00,68.9,53.5,30.24,NNE,22,0.0,0.0,58,0.00,,SCT025,0.00,VWS V14.00,2013-04-07 00:47:00,
2013-04-06 20:52:00,68.9,54.9,30.24,NE,45,1.3,1.3,61,0.00,,SCT025,0.00,VWS V14.00,2013-04-07 00:52:00,
2013-04-06 20:57:00,69.1,56.4,30.24,NNE,22,0.0,0.0,64,0.00,,SCT025,0.00,VWS V14.00,2013-04-07 00:57:00,
2013-04-06 21:03:00,69.1,56.4,30.24,North,0,2.0,2.0,64,0.00,,SCT025,0.00,VWS V14.00,2013-04-07 01:03:00,
2013-04-06 21:08:00,69.1,56.8,30.24,NNE,22,0.0,0.0,65,0.00,,SCT025,0.00,VWS V14.00,2013-04-07 01:08:00,
2013-04-06 21:13:00,69.1,56.8,30.24,NNE,22,0.0,0.0,65,0.00,,SCT025,0.00,VWS V14.00,2013-04-07 01:13:00,
2013-04-06 21:18:00,68.9,57.1,30.24,North,0,0.0,0.0,66,0.00,,SCT025,0.00,VWS V14.00,2013-04-07 01:18:00,
2013-04-06 21:23:00,68.9,57.9,30.24,WNW,292,0.0,0.0,68,0.00,,SCT025,0.00,VWS V14.00,2013-04-07 01:23:00,
2013-04-06 21:28:00,68.9,59.1,30.24,ENE,68,3.1,3.1,71,0.00,,SCT025,0.00,VWS V14.00,2013-04-07 01:28:00,
2013-04-06 21:33:00,69.1,60.5,30.24,NNE,22,2.7,2.7,74,0.00,,SCT025,0.00,VWS V14.00,2013-04-07 01:33:00,
2013-04-06 21:38:00,69.3,60.2,30.24,ENE,68,3.1,3.1,73,0.00,,SCT025,0.00,VWS V14.00,2013-04-07 01:38:00,
2013-04-06 21:42:00,69.4,60.4,30.24,East,90,4.3,4.3,73,0.00,,SCT025,0.00,VWS V14.00,2013-04-07 01:42:00,
2013-04-06 21:47:00,69.4,59.6,30.24,East,90,2.5,2.5,71,0.00,,SCT025,0.00,VWS V14.00,2013-04-07 01:47:00,
2013-04-06 21:52:00,69.6,59.4,30.24,ENE,68,4.0,4.0,70,0.00,,SCT025,0.00,VWS V14.00,2013-04-07 01:52:00,
2013-04-06 21:57:00,69.6,59.0,30.24,East,90,2.9,2.9,69,0.00,,SCT025,0.00,VWS V14.00,2013-04-07 01:57:00,
2013-04-06 22:02:00,69.6,58.6,30.21,ENE,68,3.4,3.4,68,0.00,,SCT025,0.00,VWS V14.00,2013-04-07 02:02:00,
2013-04-06 22:07:00,69.6,58.6,30.21,ENE,68,5.8,5.8,68,0.00,,SCT025,0.00,VWS V14.00,2013-04-07 02:07:00,
2013-04-06 22:12:00,69.6,58.6,30.21,ENE,68,2.7,2.7,68,0.00,,SCT025,0.00,VWS V14.00,2013-04-07 02:12:00,
2013-04-06 22:17:00,69.4,58.4,30.24,NNE,22,3.1,3.1,68,0.00,,SCT025,0.00,VWS V14.00,2013-04-07 02:17:00,
2013-04-06 22:22:00,69.4,58.4,30.24,NE,45,2.9,2.9,68,0.00,,SCT025,0.00,VWS V14.00,2013-04-07 02:22:00,
2013-04-06 22:27:00,69.4,58.4,30.24,East,90,3.4,3.4,68,0.00,,SCT025,0.00,VWS V14.00,2013-04-07 02:27:00,
2013-04-06 22:32:00,69.4,58.4,30.24,East,90,2.7,2.7,68,0.00,,SCT025,0.00,VWS V14.00,2013-04-07 02:32:00,
2013-04-06 22:37:00,69.4,58.4,30.24,ENE,68,3.4,3.4,68,0.00,,SCT025,0.00,VWS V14.00,2013-04-07 02:37:00,
2013-04-06 22:42:00,69.3,57.8,30.24,NE,45,3.1,3.1,67,0.00,,SCT025,0.00,VWS V14.00,2013-04-07 02:42:00,
2013-04-06 22:47:00,68.9,58.7,30.21,NE,45,3.1,3.1,70,0.00,,SCT025,0.00,VWS V14.00,2013-04-07 02:47:00,
2013-04-06 22:52:00,68.5,58.8,30.21,SE,135,0.0,0.0,71,0.00,,SCT025,0.00,VWS V14.00,2013-04-07 02:52:00,
2013-04-06 22:58:00,68.5,58.8,30.21,North,0,0.0,0.0,71,0.00,,SCT025,0.00,VWS V14.00,2013-04-07 02:58:00,
2013-04-06 23:03:00,68.5,58.8,30.24,East,90,0.0,0.0,71,0.00,,SCT025,0.00,VWS V14.00,2013-04-07 03:03:00,
2013-04-06 23:08:00,68.0,59.0,30.24,SSE,158,0.0,0.0,73,0.00,,SCT025,0.00,VWS V14.00,2013-04-07 03:08:00,
2013-04-06 23:13:00,67.8,58.9,30.24,SSE,158,0.0,0.0,73,0.00,,SCT025,0.00,VWS V14.00,2013-04-07 03:13:00,
2013-04-06 23:18:00,67.6,59.1,30.24,SSE,158,0.0,0.0,74,0.00,,SCT025,0.00,VWS V14.00,2013-04-07 03:18:00,
2013-04-06 23:23:00,67.5,60.0,30.24,NE,45,3.1,3.1,77,0.00,,SCT025,0.00,VWS V14.00,2013-04-07 03:23:00,
2013-04-06 23:28:00,67.5,60.0,30.24,ENE,68,1.6,1.6,77,0.00,,SCT025,0.00,VWS V14.00,2013-04-07 03:28:00,
2013-04-06 23:32:00,67.6,59.8,30.24,NNE,22,2.5,2.5,76,0.00,,SCT025,0.00,VWS V14.00,2013-04-07 03:32:00,
2013-04-06 23:37:00,68.2,58.4,30.24,ESE,112,2.5,2.5,71,0.00,,SCT025,0.00,VWS V14.00,2013-04-07 03:37:00,
2013-04-06 23:42:00,68.9,57.5,30.24,NE,45,3.1,3.1,67,0.00,,SCT025,0.00,VWS V14.00,2013-04-07 03:42:00,
2013-04-06 23:48:00,69.1,56.8,30.24,NNE,22,3.1,3.1,65,0.00,,SCT025,0.00,VWS V14.00,2013-04-07 03:48:00,
2013-04-06 23:53:00,69.3,55.7,30.24,ENE,68,3.1,3.1,62,0.00,,SCT025,0.00,VWS V14.00,2013-04-07 03:53:00,
2013-04-06 23:58:00,69.4,55.9,30.24,ENE,68,2.0,2.0,62,0.00,,SCT025,0.00,VWS V14.00,2013-04-07 03:58:00,